| time (UTC) | temp F | wind direction | speed MPH | gust MPH | rain 1hr in | rain 24hr in | rain mn in | humidity % | barometer mb |
| 20260507221554 | 48 | 0 | 1.0 | 8.0 | 0.00 | 0.08 | 0.08 | 86 | 1012.0 |
| 20260507220051 | 48 | 167 | 5.0 | 13.0 | 0.00 | 0.08 | 0.08 | 86 | 1012.0 |
| 20260507214557 | 48 | 171 | 4.0 | 15.0 | 0.00 | 0.08 | 0.08 | 86 | 1012.0 |
| 20260507213122 | 48 | 165 | 3.0 | 10.0 | 0.00 | 0.08 | 0.08 | 86 | 1011.9 |
| 20260507211548 | 48 | 134 | 3.0 | 10.0 | 0.00 | 0.08 | 0.08 | 87 | 1012.0 |
| 20260507210101 | 48 | 140 | 2.0 | 9.0 | 0.00 | 0.08 | 0.08 | 86 | 1012.0 |
| 20260507204548 | 49 | 115 | 1.0 | 10.0 | 0.00 | 0.08 | 0.08 | 85 | 1012.0 |
| 20260507203048 | 49 | 184 | 0.0 | 8.0 | 0.00 | 0.08 | 0.08 | 85 | 1011.9 |
| 20260507201604 | 49 | 0 | 0.0 | 4.0 | 0.00 | 0.08 | 0.08 | 86 | 1011.8 |
| 20260507200103 | 49 | 0 | 0.0 | 3.0 | 0.00 | 0.08 | 0.08 | 88 | 1011.7 |
| 20260507194549 | 49 | 0 | 0.0 | 4.0 | 0.00 | 0.08 | 0.08 | 88 | 1011.6 |
| 20260507193053 | 49 | 0 | 0.0 | 2.0 | 0.00 | 0.08 | 0.08 | 88 | 1011.5 |
| 20260507191548 | 50 | 0 | 0.0 | 0.0 | 0.00 | 0.08 | 0.08 | 88 | 1011.5 |
| 20260507190054 | 50 | 0 | 0.0 | 3.0 | 0.00 | 0.08 | 0.08 | 88 | 1011.5 |
| 20260507184549 | 50 | 0 | 0.0 | 1.0 | 0.00 | 0.08 | 0.08 | 88 | 1011.4 |
| 20260507183052 | 50 | 0 | 0.0 | 3.0 | 0.00 | 0.08 | 0.08 | 87 | 1011.5 |
| 20260507181548 | 50 | 133 | 1.0 | 2.0 | 0.00 | 0.08 | 0.08 | 87 | 1011.4 |
| 20260507180054 | 50 | 94 | 1.0 | 3.0 | 0.00 | 0.08 | 0.08 | 88 | 1011.3 |
| 20260507174555 | 50 | 0 | 0.0 | 5.0 | 0.00 | 0.08 | 0.08 | 86 | 1011.3 |
| 20260507173054 | 49 | 226 | 1.0 | 8.0 | 0.00 | 0.08 | 0.08 | 87 | 1011.2 |
| 20260507171600 | 48 | 0 | 1.0 | 9.0 | 0.00 | 0.08 | 0.08 | 86 | 1011.3 |
| 20260507170051 | 48 | 140 | 0.0 | 6.0 | 0.01 | 0.08 | 0.08 | 86 | 1011.4 |
| 20260507164547 | 48 | 0 | 0.0 | 11.0 | 0.01 | 0.08 | 0.08 | 85 | 1011.4 |
| 20260507163044 | 47 | 0 | 4.0 | 17.0 | 0.01 | 0.08 | 0.08 | 87 | 1011.5 |
| 20260507161601 | 47 | 123 | 1.0 | 14.0 | 0.01 | 0.08 | 0.08 | 90 | 1011.6 |
| 20260507160045 | 47 | 155 | 5.0 | 16.0 | 0.02 | 0.07 | 0.07 | 90 | 1011.7 |
| 20260507154549 | 48 | 126 | 2.0 | 16.0 | 0.07 | 0.07 | 0.07 | 89 | 1011.7 |
| 20260507153106 | 48 | 0 | 0.0 | 3.0 | 0.07 | 0.07 | 0.07 | 92 | 1011.7 |
| 20260507151558 | 48 | 121 | 2.0 | 15.0 | 0.07 | 0.07 | 0.07 | 92 | 1011.7 |
| 20260507150052 | 49 | 360 | 2.0 | 10.0 | 0.05 | 0.05 | 0.05 | 88 | 1011.9 |
| 20260507144543 | 53 | 203 | 9.0 | 15.0 | 0.00 | 0.00 | 0.00 | 77 | 1011.9 |
| 20260507143051 | 53 | 135 | 5.0 | 19.0 | 0.00 | 0.00 | 0.00 | 75 | 1011.7 |
| 20260507141551 | 53 | 140 | 7.0 | 16.0 | 0.00 | 0.00 | 0.00 | 75 | 1011.8 |
| 20260507140047 | 53 | 170 | 6.0 | 14.0 | 0.00 | 0.00 | 0.00 | 75 | 1011.9 |
| 20260507134552 | 53 | 172 | 6.0 | 22.0 | 0.00 | 0.00 | 0.00 | 74 | 1012.1 |
| 20260507133047 | 54 | 124 | 8.0 | 18.0 | 0.00 | 0.00 | 0.00 | 74 | 1012.1 |
| 20260507131551 | 55 | 175 | 11.0 | 20.0 | 0.00 | 0.00 | 0.00 | 73 | 1012.1 |
| 20260507130057 | 54 | 156 | 5.0 | 17.0 | 0.00 | 0.00 | 0.00 | 78 | 1012.3 |
| 20260507124557 | 53 | 185 | 6.0 | 14.0 | 0.00 | 0.00 | 0.00 | 77 | 1012.4 |
| 20260507123104 | 52 | 166 | 11.0 | 17.0 | 0.00 | 0.00 | 0.00 | 77 | 1012.4 |
| 20260507121557 | 51 | 149 | 6.0 | 17.0 | 0.00 | 0.00 | 0.00 | 79 | 1012.4 |
| 20260507120048 | 50 | 187 | 9.0 | 16.0 | 0.00 | 0.00 | 0.00 | 80 | 1012.5 |
| 20260507114554 | 49 | 163 | 7.0 | 13.0 | 0.00 | 0.00 | 0.00 | 80 | 1012.6 |
| 20260507113051 | 50 | 167 | 8.0 | 15.0 | 0.00 | 0.00 | 0.00 | 80 | 1012.7 |
| 20260507111550 | 50 | 141 | 7.0 | 12.0 | 0.00 | 0.00 | 0.00 | 78 | 1012.7 |
| 20260507110049 | 51 | 165 | 7.0 | 14.0 | 0.00 | 0.00 | 0.00 | 77 | 1012.6 |
| 20260507104550 | 52 | 147 | 5.0 | 10.0 | 0.00 | 0.00 | 0.00 | 77 | 1012.7 |
| 20260507103044 | 52 | 175 | 4.0 | 12.0 | 0.00 | 0.00 | 0.00 | 75 | 1012.9 |
| 20260507101556 | 53 | 163 | 5.0 | 10.0 | 0.00 | 0.00 | 0.00 | 75 | 1012.7 |
| 20260507100055 | 53 | 142 | 3.0 | 13.0 | 0.00 | 0.00 | 0.00 | 76 | 1012.7 |
| 20260507094547 | 52 | 151 | 4.0 | 10.0 | 0.00 | 0.00 | 0.00 | 77 | 1012.8 |
| 20260507093048 | 52 | 133 | 3.0 | 9.0 | 0.00 | 0.00 | 0.00 | 75 | 1012.8 |
| 20260507091556 | 52 | 144 | 3.0 | 9.0 | 0.00 | 0.00 | 0.00 | 77 | 1012.8 |
| 20260507090048 | 51 | 185 | 3.0 | 10.0 | 0.00 | 0.00 | 0.00 | 78 | 1012.8 |
| 20260507084548 | 50 | 126 | 1.0 | 8.0 | 0.00 | 0.00 | 0.00 | 79 | 1013.0 |
| 20260507083107 | 49 | 138 | 3.0 | 8.0 | 0.00 | 0.00 | 0.00 | 80 | 1013.0 |
| 20260507081558 | 49 | 92 | 3.0 | 11.0 | 0.00 | 0.00 | 0.00 | 82 | 1013.0 |
| 20260507080047 | 48 | 167 | 3.0 | 11.0 | 0.00 | 0.00 | 0.00 | 82 | 1013.1 |
| 20260507074549 | 47 | 140 | 3.0 | 11.0 | 0.00 | 0.00 | 0.00 | 81 | 1013.0 |
| 20260507073053 | 46 | 132 | 2.0 | 8.0 | 0.00 | 0.00 | 0.00 | 82 | 1013.1 |
| 20260507071545 | 46 | 163 | 3.0 | 6.0 | 0.00 | 0.00 | 0.00 | 83 | 1013.0 |
| 20260507070047 | 45 | 149 | 1.0 | 4.0 | 0.00 | 0.00 | 0.00 | 85 | 1013.0 |
| 20260507064550 | 44 | 147 | 0.0 | 1.0 | 0.00 | 0.00 | 0.00 | 86 | 1013.1 |
| 20260507063050 | 43 | 0 | 0.0 | 3.0 | 0.00 | 0.00 | 0.00 | 85 | 1013.1 |
| 20260507061552 | 42 | 323 | 0.0 | 2.0 | 0.00 | 0.00 | 0.00 | 86 | 1013.1 |
| 20260507060057 | 42 | 0 | 0.0 | 2.0 | 0.00 | 0.00 | 0.00 | 86 | 1013.0 |
| 20260507054553 | 42 | 0 | 0.0 | 2.0 | 0.00 | 0.00 | 0.00 | 87 | 1013.0 |
| 20260507053048 | 42 | 0 | 0.0 | 2.0 | 0.00 | 0.00 | 0.00 | 86 | 1012.9 |
| 20260507051550 | 42 | 0 | 0.0 | 1.0 | 0.00 | 0.00 | 0.00 | 87 | 1013.0 |
| 20260507050058 | 41 | 0 | 0.0 | 3.0 | 0.00 | 0.00 | 0.00 | 86 | 1013.0 |
| 20260507044553 | 41 | 0 | 0.0 | 3.0 | 0.00 | 0.00 | 0.00 | 87 | 1013.1 |
| 20260507043049 | 41 | 0 | 1.0 | 4.0 | 0.00 | 0.00 | 0.00 | 88 | 1013.0 |
| 20260507041547 | 41 | 138 | 0.0 | 1.0 | 0.00 | 0.00 | 0.00 | 87 | 1013.0 |
| 20260507040046 | 41 | 28 | 0.0 | 2.0 | 0.00 | 0.00 | 0.00 | 87 | 1013.1 |
| 20260507034551 | 41 | 0 | 0.0 | 4.0 | 0.00 | 0.00 | 0.00 | 87 | 1013.1 |
| 20260507033049 | 41 | 0 | 1.0 | 4.0 | 0.00 | 0.00 | 0.00 | 87 | 1013.2 |
| 20260507031549 | 41 | 0 | 0.0 | 2.0 | 0.00 | 0.00 | 0.00 | 86 | 1013.2 |
| 20260507030047 | 41 | 0 | 0.0 | 1.0 | 0.00 | 0.00 | 0.00 | 86 | 1013.3 |
| 20260507024551 | 41 | 0 | 0.0 | 2.0 | 0.00 | 0.00 | 0.00 | 85 | 1013.4 |
| 20260507023044 | 41 | 0 | 0.0 | 2.0 | 0.00 | 0.00 | 0.00 | 84 | 1013.4 |
| 20260507021551 | 41 | 123 | 0.0 | 0.0 | 0.00 | 0.00 | 0.00 | 83 | 1013.4 |
| 20260507020104 | 42 | 0 | 0.0 | 1.0 | 0.00 | 0.00 | 0.00 | 83 | 1013.4 |
| 20260507014557 | 42 | 0 | 1.0 | 4.0 | 0.00 | 0.00 | 0.00 | 82 | 1013.6 |
| 20260507013053 | 43 | 157 | 2.0 | 4.0 | 0.00 | 0.00 | 0.00 | 82 | 1013.6 |
| 20260507011551 | 43 | 0 | 0.0 | 2.0 | 0.00 | 0.00 | 0.00 | 81 | 1013.8 |
| 20260507010050 | 43 | 0 | 1.0 | 5.0 | 0.00 | 0.00 | 0.00 | 81 | 1013.8 |
| 20260507004549 | 43 | 116 | 3.0 | 7.0 | 0.00 | 0.00 | 0.00 | 80 | 1013.9 |
| 20260507003047 | 43 | 136 | 2.0 | 5.0 | 0.00 | 0.00 | 0.00 | 81 | 1013.9 |
| 20260507001557 | 44 | 152 | 0.0 | 4.0 | 0.00 | 0.00 | 0.00 | 81 | 1014.0 |
| 20260507000053 | 44 | 109 | 0.0 | 2.0 | 0.00 | 0.00 | 0.00 | 81 | 1014.1 |
| 20260506234600 | 44 | 105 | 1.0 | 3.0 | 0.00 | 0.00 | 0.00 | 81 | 1014.1 |
| 20260506233057 | 44 | 134 | 2.0 | 7.0 | 0.00 | 0.00 | 0.00 | 81 | 1014.3 |
| 20260506231557 | 44 | 139 | 1.0 | 4.0 | 0.00 | 0.00 | 0.00 | 82 | 1014.3 |
| 20260506230056 | 44 | 140 | 0.0 | 3.0 | 0.00 | 0.00 | 0.00 | 82 | 1014.4 |
| 20260506224549 | 44 | 0 | 0.0 | 5.0 | 0.00 | 0.00 | 0.00 | 82 | 1014.4 |
| 20260506223055 | 44 | 143 | 2.0 | 7.0 | 0.00 | 0.00 | 0.00 | 82 | 1014.5 |